SCP
0 0 0 0 0 0 0 0 0 0 0 0 0 0 0 0 0 0 0 0 0 0 0 0 0 0 0 0 0 0 0 0
0 0 0 0 0 0 0 0 0 0 0 0 0 0 0 0 0 0 0 0 0 0 0 0 0 0 0 0 0 0 0 0
0 0 0 0 0 0 0 0 0 0 0 0 0 0 0 0 0 0 0 0 0 0 0 0 0 0 0 0 0 0 0 0
0 0 0 0 0 0 0 0 0 0 0 0 0 0 0 0 0 0 0 0 0 0 0 0 0 0 0 0 0 0 0 0
0 0 0 0 0 0 0 0 0 0 0 0 0 0 0 0 0 0 0 0 0 0 0 0 0 0 0 0 0 0 0 0
0 0 0 0 0 0 0 0 0 0 0 0 0 0 0 0 0 0 0 0 0 0 0 0 0 0 0 0 0 0 0 0
0 0 0 0 0 0 0 0 0 0 0 0 0 0 0 0 0 0 0 0 0 0 0 0 0 0 0 0 0 0 0 0
0 0 0 0 0 0 0 0 0 0 0 0 0 0 0 0 0 0 0 0 0 0 0 0 0 0 0 0 0 0 0 0
0 0 0 0 0 0 0 0 0 0 0 0 0 0 0 0 0 0 0 0 0 0 0 0 0 0 0 0 0 0 0 0
0 0 0 0 0 0 0 0 0 0 0 0 0 0 0 0 0 0 0 0 0 0 0 0 0 0 0 0 0 0 0 0
0 0 0 0 0 0 0 0 0 0 0 0 0 0 0 0 0 0 0 0 0 0 0 0 0 0 0 0 0 0 0 0
0 0 0 0 0 0 0 0 0 0 0 0 0 0 0 0 0 0 0 0 0 0 0 0 0 0 0 0 0 0 0 0
0 0 0 0 0 0 0 0 0 0 0 0 0 0 0 0 0 0 0 0 0 0 0 0 0 0 0 0 0 0 0 0
0 0 0 0 0 0 0 0 0 0 0 0 0 0 0 0 0 0 0 0 0 0 0 0 0 0 0 0 0 0 0 0
0 0 0 0 0 0 0 0 0 0 0 0 0 0 0 0 0 0 0 0 0 0 0 0 0 0 0 0 0 0 0 0
0 0 0 0 0 0 0 0 0 0 0 0 0 0 0 0 0 0 0 0 0 0 0 0 0 0 0 0 0 0 0 0
0 0 0 0 0 0 0 0 0 0 0 0 0 0 0 0 0 0 0 0 0 0 0 0 0 0 0 0 0 0 0 0
0 0 0 0 0 0 0 0 0 0 0 0 0 0 0 0 0 0 0 0 0 0 0 0 0 0 0 0 0 0 0 0
0 0 0 0 0 0 0 0 0 0 0 0 0 0 0 0 0 0 0 0 0 0 0 0 0 0 0 0 0 0 0 0
0 0 0 0 0 0 0 0 0 0 0 0 0 0 0 0 0 0 0 0 0 0 0 0 0 0 0 0 0 0 0 0
Wind_Speed_500mb
31 34 34 31 32 34 36 42 46 53 62 68 75 80 84 88 93 94 94 97 97 94 92 90 86 84 89 95 97 102 99 96
30 32 29 21 17 17 18 20 25 33 43 54 64 72 79 87 92 97 99 100 101 100 97 94 90 87 88 92 96 102 108 107
42 43 24 16 11 14 15 13 15 19 25 32 39 50 65 77 85 88 90 90 90 89 91 90 91 90 89 91 88 93 100 105
49 37 21 15 12 13 18 21 25 28 33 37 41 45 49 55 64 75 83 89 87 83 84 86 89 90 91 92 90 96 98 95
48 33 21 18 14 12 17 21 23 27 32 38 42 44 46 46 50 56 64 73 79 79 77 78 79 84 86 83 87 93 96 93
45 29 23 21 19 18 19 24 29 31 34 34 37 41 42 43 43 43 47 53 62 71 78 81 81 82 77 77 81 84 84 93
37 32 22 20 20 25 28 30 36 39 38 38 40 43 43 42 42 43 43 47 51 56 62 74 77 75 76 73 77 81 81 87
37 32 27 28 31 34 36 42 45 44 44 43 41 41 43 44 44 44 45 48 51 53 56 59 64 71 72 69 71 76 82 84
38 35 34 35 39 42 45 47 48 47 44 42 41 41 42 44 44 45 47 49 50 50 52 57 54 54 58 61 70 74 75 85
38 37 36 41 40 39 40 40 39 37 37 39 41 41 44 45 46 47 46 44 42 42 42 47 49 54 54 56 57 56 57 56
39 37 36 33 31 28 27 27 29 30 32 35 38 41 45 46 49 49 47 43 36 33 35 36 34 37 43 50 52 54 55 53
44 37 32 27 21 17 16 16 18 19 21 25 31 31 33 37 38 39 37 34 30 30 33 36 33 36 34 39 40 45 48 56
42 35 29 23 18 15 13 17 18 20 23 26 29 31 32 34 33 33 30 26 23 24 29 33 35 37 38 39 36 37 42 44
44 42 37 29 23 21 17 17 21 22 22 24 26 27 27 28 28 27 23 20 20 21 24 29 32 35 39 43 42 36 34 31
48 46 37 27 25 22 18 16 14 15 15 16 17 18 19 22 22 22 20 19 18 20 21 24 27 32 33 34 34 35 33 33
52 48 41 33 30 27 22 17 11 8 3 3 6 8 9 12 14 12 13 16 17 20 21 21 22 22 22 24 23 21 25 29
54 47 41 37 34 28 23 19 14 9 5 2 2 4 3 2 3 3 5 8 12 12 11 10 8 8 10 12 15 18 24 30
54 49 44 39 34 27 23 20 15 10 4 3 5 4 2 1 5 7 7 5 5 5 5 5 7 6 4 6 12 16 22 30
50 48 44 39 36 32 27 22 17 12 7 5 3 3 3 5 7 9 14 12 6 5 5 3 4 8 10 13 22 30 35 38
52 49 44 41 38 34 27 18 12 9 7 7 8 6 6 6 6 6 4 3 3 4 8 8 9 11 12 15 22 27 36 41
Wind_Direction_500mb
213 218 223 230 236 236 235 240 246 252 255 258 261 264 266 267 267 269 271 273 274 274 274 274 270 265 263 261 258 253 250 247
198 185 171 169 181 201 219 231 245 252 254 254 253 255 257 260 264 268 271 271 274 275 276 276 277 274 268 264 263 260 255 251
184 175 180 186 199 216 221 244 266 271 271 268 267 263 260 259 260 262 265 268 269 270 272 273 272 272 273 267 265 265 265 260
192 193 204 205 216 227 234 262 270 269 273 275 274 272 271 268 265 263 263 264 265 267 267 269 271 271 271 267 263 270 263 264
187 202 218 226 234 254 261 269 278 279 284 286 285 280 279 278 276 272 269 266 264 263 263 267 272 272 272 272 271 271 268 268
199 208 224 227 243 261 268 273 282 288 289 295 288 283 281 278 276 276 275 272 269 265 259 260 263 268 272 275 274 274 276 272
208 225 240 256 264 270 273 283 287 287 287 279 281 280 282 283 280 276 276 275 273 272 270 263 262 266 269 270 273 275 276 277
225 242 259 262 268 273 274 278 282 281 283 274 272 275 277 277 278 279 280 280 277 275 274 271 266 262 265 265 267 271 272 273
231 246 256 261 272 277 277 280 279 278 273 266 266 272 276 278 280 280 280 280 281 280 278 275 271 261 260 261 272 270 272 274
242 237 250 264 267 271 277 279 280 276 276 273 276 282 284 282 280 277 280 282 281 283 285 280 272 264 259 263 269 279 280 281
224 240 247 250 255 260 268 276 277 275 278 283 287 290 292 292 289 287 287 286 288 296 302 303 299 282 273 264 267 271 274 279
229 223 230 228 227 232 246 262 270 277 284 290 291 292 292 288 284 280 281 286 292 297 300 301 297 286 278 278 275 277 273 272
204 208 197 192 207 229 254 274 284 291 294 295 296 300 298 289 278 272 274 275 283 291 291 291 293 287 283 277 275 274 271 265
195 189 189 195 206 224 240 259 279 288 292 295 299 298 293 284 276 273 272 278 283 286 287 289 295 294 291 291 288 281 263 258
188 188 189 198 215 221 239 252 264 278 286 302 305 304 306 298 290 279 276 274 273 276 284 298 305 306 302 300 297 288 275 250
191 191 193 204 211 212 217 214 209 215 254 328 317 328 321 309 293 280 275 280 284 288 293 296 298 302 301 302 295 283 259 234
191 194 197 202 204 201 199 196 200 207 200 245 315 357 327 296 255 196 203 262 283 287 304 311 315 320 311 296 280 257 246 242
193 195 200 197 196 190 198 198 204 210 221 269 306 334 316 220 172 138 110 88 54 20 47 15 349 320 288 240 269 275 267 258
194 197 197 193 192 188 191 190 189 194 221 236 254 255 173 164 168 145 128 112 82 7 357 329 277 270 273 269 260 263 266 269
192 193 193 191 186 179 177 175 175 169 173 171 150 138 124 123 149 149 149 163 197 269 299 288 277 268 267 258 256 262 266 270
Wind_Speed_850mb
31 34 34 31 32 34 36 42 46 53 62 68 75 80 84 88 93 94 94 97 97 94 92 90 86 84 89 95 97 102 99 96
30 32 29 21 17 17 18 20 25 33 43 54 64 72 79 87 92 97 99 100 101 100 97 94 90 87 88 92 96 102 108 107
42 43 24 16 11 14 15 13 15 19 25 32 39 50 65 77 85 88 90 90 90 89 91 90 91 90 89 91 88 93 100 105
49 37 21 15 12 13 18 21 25 28 33 37 41 45 49 55 64 75 83 89 87 83 84 86 89 90 91 92 90 96 98 95
48 33 21 18 14 12 17 21 23 27 32 38 42 44 46 46 50 56 64 73 79 79 77 78 79 84 86 83 87 93 96 93
45 29 23 21 19 18 19 24 29 31 34 34 37 41 42 43 43 43 47 53 62 71 78 81 81 82 77 77 81 84 84 93
37 32 22 20 20 25 28 30 36 39 38 38 40 43 43 42 42 43 43 47 51 56 62 74 77 75 76 73 77 81 81 87
37 32 27 28 31 34 36 42 45 44 44 43 41 41 43 44 44 44 45 48 51 53 56 59 64 71 72 69 71 76 82 84
38 35 34 35 39 42 45 47 48 47 44 42 41 41 42 44 44 45 47 49 50 50 52 57 54 54 58 61 70 74 75 85
38 37 36 41 40 39 40 40 39 37 37 39 41 41 44 45 46 47 46 44 42 42 42 47 49 54 54 56 57 56 57 56
39 37 36 33 31 28 27 27 29 30 32 35 38 41 45 46 49 49 47 43 36 33 35 36 34 37 43 50 52 54 55 53
44 37 32 27 21 17 16 16 18 19 21 25 31 31 33 37 38 39 37 34 30 30 33 36 33 36 34 39 40 45 48 56
42 35 29 23 18 15 13 17 18 20 23 26 29 31 32 34 33 33 30 26 23 24 29 33 35 37 38 39 36 37 42 44
44 42 37 29 23 21 17 17 21 22 22 24 26 27 27 28 28 27 23 20 20 21 24 29 32 35 39 43 42 36 34 31
48 46 37 27 25 22 18 16 14 15 15 16 17 18 19 22 22 22 20 19 18 20 21 24 27 32 33 34 34 35 33 33
52 48 41 33 30 27 22 17 11 8 3 3 6 8 9 12 14 12 13 16 17 20 21 21 22 22 22 24 23 21 25 29
54 47 41 37 34 28 23 19 14 9 5 2 2 4 3 2 3 3 5 8 12 12 11 10 8 8 10 12 15 18 24 30
54 49 44 39 34 27 23 20 15 10 4 3 5 4 2 1 5 7 7 5 5 5 5 5 7 6 4 6 12 16 22 30
50 48 44 39 36 32 27 22 17 12 7 5 3 3 3 5 7 9 14 12 6 5 5 3 4 8 10 13 22 30 35 38
52 49 44 41 38 34 27 18 12 9 7 7 8 6 6 6 6 6 4 3 3 4 8 8 9 11 12 15 22 27 36 41
Wind_Direction_850mb
213 218 223 230 236 236 235 240 246 252 255 258 261 264 266 267 267 269 271 273 274 274 274 274 270 265 263 261 258 253 250 247
198 185 171 169 181 201 219 231 245 252 254 254 253 255 257 260 264 268 271 271 274 275 276 276 277 274 268 264 263 260 255 251
184 175 180 186 199 216 221 244 266 271 271 268 267 263 260 259 260 262 265 268 269 270 272 273 272 272 273 267 265 265 265 260
192 193 204 205 216 227 234 262 270 269 273 275 274 272 271 268 265 263 263 264 265 267 267 269 271 271 271 267 263 270 263 264
187 202 218 226 234 254 261 269 278 279 284 286 285 280 279 278 276 272 269 266 264 263 263 267 272 272 272 272 271 271 268 268
199 208 224 227 243 261 268 273 282 288 289 295 288 283 281 278 276 276 275 272 269 265 259 260 263 268 272 275 274 274 276 272
208 225 240 256 264 270 273 283 287 287 287 279 281 280 282 283 280 276 276 275 273 272 270 263 262 266 269 270 273 275 276 277
225 242 259 262 268 273 274 278 282 281 283 274 272 275 277 277 278 279 280 280 277 275 274 271 266 262 265 265 267 271 272 273
231 246 256 261 272 277 277 280 279 278 273 266 266 272 276 278 280 280 280 280 281 280 278 275 271 261 260 261 272 270 272 274
242 237 250 264 267 271 277 279 280 276 276 273 276 282 284 282 280 277 280 282 281 283 285 280 272 264 259 263 269 279 280 281
224 240 247 250 255 260 268 276 277 275 278 283 287 290 292 292 289 287 287 286 288 296 302 303 299 282 273 264 267 271 274 279
229 223 230 228 227 232 246 262 270 277 284 290 291 292 292 288 284 280 281 286 292 297 300 301 297 286 278 278 275 277 273 272
204 208 197 192 207 229 254 274 284 291 294 295 296 300 298 289 278 272 274 275 283 291 291 291 293 287 283 277 275 274 271 265
195 189 189 195 206 224 240 259 279 288 292 295 299 298 293 284 276 273 272 278 283 286 287 289 295 294 291 291 288 281 263 258
188 188 189 198 215 221 239 252 264 278 286 302 305 304 306 298 290 279 276 274 273 276 284 298 305 306 302 300 297 288 275 250
191 191 193 204 211 212 217 214 209 215 254 328 317 328 321 309 293 280 275 280 284 288 293 296 298 302 301 302 295 283 259 234
191 194 197 202 204 201 199 196 200 207 200 245 315 357 327 296 255 196 203 262 283 287 304 311 315 320 311 296 280 257 246 242
193 195 200 197 196 190 198 198 204 210 221 269 306 334 316 220 172 138 110 88 54 20 47 15 349 320 288 240 269 275 267 258
194 197 197 193 192 188 191 190 189 194 221 236 254 255 173 164 168 145 128 112 82 7 357 329 277 270 273 269 260 263 266 269
192 193 193 191 186 179 177 175 175 169 173 171 150 138 124 123 149 149 149 163 197 269 299 288 277 268 267 258 256 262 266 270